map of MNCH home
Great Circle Mapper logo
MNCH - Location
Location
City:  Chinandega, Nicaragua
ICAO:MNCH

Details
Latitude:1238'N (12.633)
Longitude:8708'W (-87.133)
Variation:0.1W (WMM2015 magnetic declination)

Time
Time Zone:UTC-6
Local Time:

Weather
METAR:MNCH 212300Z 21004KT 9999 FEW025 SCT300 30/20 Q1009

Related Locations
Nearby:
Farthest:CCK: 12180 mi / 19601 km
West Island (Pulau Panjang) [Cocos (Keeling) Islands], CC

Find:

   beyond  
but within

Other Information
Maps:
NOTAMs:
Links:
Sources:

  
flag of Nicaragua   

Sectional Chart

Flight Planning
at skyvector.com

Satellite Image

Google Maps Satellite View

 

Copyright © 2004-2014 Karl L. Swartz. All rights reserved.
The Great Circle Mapper name and logo are trademarks of the Great Circle Mapper.
All other trademarks mentioned herein belong to their respective owners.
Please see credits for attibutions and further copyright information.

  Follow gcmap on Facebook Follow gcmap on Twitter

hCard Microformat

Geo Microformat